This demonstration page uses our WeatherBlox Daily Observations layout. Learn more.

Left ArrowRight Arrow

39.12711, -84.51439

Hourly Observations for May 26, 2022

Temp ( °F °C ) Dew Point ( °F °C ) Humidity (%) Winds ( mph kmh ) Pressure ( in mb ) Visibility ( mi km ) Precip ( " mm )
12:53 am 00:53 Partly Cloudy 72 22.2 64 17.8 76 76 S 14 22 29.95 1014 10 16 0.00 0.00
1:53 am 01:53 Partly Cloudy 73 22.8 64 17.8 74 74 S 13 20 29.96 1015 10 16 0.00 0.00
2:53 am 02:53 Partly Cloudy 72 22.2 64 17.8 76 76 S 8 13 29.95 1014 10 16 0.00 0.00
3:53 am 03:53 Cloudy 72 22.2 64 17.8 76 76 S 8 13 29.94 1014 10 16 0.00 0.00
4:53 am 04:53 Mostly Cloudy with Light Rain 71 21.7 64 17.8 79 79 SSE 5 7 29.95 1014 10 16 0.00 0.00
5:53 am 05:53 Cloudy 71 21.7 64 17.8 79 79 S 8 13 29.95 1014 10 16 0.00 0.00
6:53 am 06:53 Mostly Cloudy 70 21.1 64 17.8 82 82 S 12 19 29.96 1015 10 16 0.00 0.00
7:53 am 07:53 Cloudy with Light Rain 68 20 66 18.9 93 93 S 8 13 29.97 1015 8 13 0.02 0.51
8:53 am 08:53 Cloudy with Light Rain 68 20 66 18.9 93 93 S 12 19 29.96 1015 6 10 0.00 0.00
9:24 am 09:24 Cloudy with Light Rain 68 20 66 18.9 93 93 S 8 13 29.97 1015 3 4 0.02 0.51
9:27 am 09:27 Cloudy with Rain 67 19.4 67 19.4 100 100 S 10 17 29.97 1015 3 5 0.03 0.76
9:44 am 09:44 Cloudy with Rain 68 20 67 19.4 96 96 SSE 7 11 29.96 1015 3 5 0.05 1.27
9:53 am 09:53 Cloudy with Light Rain 68 20 67 19.4 96 96 SSE 10 17 29.96 1015 5 8 0.05 1.27
10:53 am 10:53 Cloudy 69 20.6 67 19.4 93 93 SE 9 15 29.95 1014 10 16 0.00 0.00
11:53 am 11:53 Mostly Cloudy 72 22.2 69 20.6 91 91 S 9 15 29.93 1014 10 16 0.00 0.00
12:53 pm 12:53 Mostly Cloudy 74 23.3 69 20.6 85 85 SSE 13 20 29.91 1013 10 16 0.00 0.00
1:53 pm 13:53 Cloudy with Light Rain 72 22.2 68 20 87 87 S 14 22 29.88 1012 7 11 0.00 0.00
2:41 pm 14:41 Cloudy with Heavy Rain 72 22.2 68 20 87 87 SSW 10 17 29.86 1011 2 3 0.04 1.02
2:51 pm 14:51 Cloudy with Light Rain 72 22 70 21 94 94 SSW 10 17 29.86 1011 3 5 0.06 1.52
2:53 pm 14:53 Cloudy with Light Rain 72 22.2 70 21.1 94 94 SSW 8 13 29.87 1011 3 5 0.06 1.52
3:53 pm 15:53 Mostly Cloudy 73 22.8 68 20 84 84 SSW 7 11 29.86 1011 10 16 0.00 0.00
4:53 pm 16:53 Cloudy 72 22.2 66 18.9 82 82 S 3 6 29.85 1011 10 16 0.00 0.00
5:53 pm 17:53 Mostly Cloudy with Light Rain 69 20.6 68 20 96 96 SSE 3 6 29.86 1011 6 10 0.04 1.02
6:53 pm 18:53 Cloudy with Light Rain 68 20 67 19.4 96 96 VRB 3 6 29.82 1010 6 10 0.09 2.29
7:53 pm 19:53 Cloudy with Light Rain 68 20 66 18.9 93 93 ESE 6 9 29.81 1010 4 6 0.00 0.00
8:53 pm 20:53 Cloudy with Light Rain 66 18.9 64 17.8 93 93 ESE 5 7 29.82 1010 8 13 0.00 0.00
9:53 pm 21:53 Mostly Cloudy 66 18.9 64 17.8 93 93 SSE 5 7 29.83 1010 10 16 0.01 0.25
10:53 pm 22:53 Partly Cloudy 65 18.3 63 17.2 93 93 VRB 5 7 29.83 1010 10 16 0.00 0.00
11:53 pm 23:53 Mostly Cloudy 64 17.8 63 17.2 96 96 S 5 7 29.82 1010 10 16 0.00 0.00

Powered by AerisWeather